Chamberlain, SD

5:25 AM CDT on August 19, 2017 (GMT -0500)
Chamberlain

Weather History for K9V9 - July, 2013

Change the Weather History Date:

Tuesday, July 30, 2013

  Actual Average Record
Temperature  
Mean Temperature 68 °F -  
Max Temperature 79 °F 85 °F 108 °F (2006)
Min Temperature 57 °F 60 °F 47 °F (2014)
Cooling Degree Days 3    
Growing Degree Days 18 (Base 50)    
Moisture  
Dew Point 62 °F    
Average Humidity 85    
Maximum Humidity 93    
Minimum Humidity 62    
Precipitation  
Precipitation 0.05 in - - ()
Sea Level Pressure  
Sea Level Pressure 30.08 in    
Wind  
Wind Speed 6 mph (SSE)    
Max Wind Speed 26 mph    
Max Gust Speed -    
Averages and records for this station are not official NWS values.
T = Trace of Precipitation, MM = Missing Value Source: NWS Daily Summary

Daily Weather History Graph

Daily Weather History Graph

Search for Another Location

Airport or City:

Trip Planner

Search our weather history database for the weather conditions in past years. The results will help you decide how hot, cold, wet, or windy it might be!

Date:

Astronomy

Jul. 30, 2013 Rise Set
Actual Time 6:24 AM CDT 9:02 PM CDT
Civil Twilight 5:51 AM CDT 9:35 PM CDT
Nautical Twilight 5:09 AM CDT 10:16 PM CDT
Astronomical Twilight 4:22 AM CDT 11:03 PM CDT
Moon 12:44 AM CDT (7/30) 3:23 PM CDT (7/30)
Length of Visible Light 15h 44m
Length of Day
14h 38m
Last Quarter, 41% of the Moon is Illuminated
Jul 30
Last Quarter
Aug 6
New
Aug 14
First Quarter
Aug 20
Full
Aug 28
Last Quarter

Hourly Weather History & Observations

Time (CDT) Temp. Dew Point Humidity Pressure Visibility Wind Dir Wind Speed Gust Speed Precip Events Conditions
12:52 AM 64.0 °F 61.0 °F 90% 30.03 in - SW 5.8 mph - N/A   Unknown
1:52 AM 64.9 °F 61.0 °F 87% 30.04 in - West 4.6 mph - N/A   Unknown
2:52 AM 64.0 °F 61.0 °F 90% 30.03 in - WSW 3.5 mph - N/A   Unknown
3:52 AM 63.0 °F 60.1 °F 90% 30.05 in - Calm Calm - N/A   Unknown
4:52 AM 61.0 °F 59.0 °F 93% 30.04 in - Calm Calm - N/A   Unknown
5:52 AM 57.9 °F 55.9 °F 93% 30.06 in - South 3.5 mph - N/A   Unknown
6:52 AM 62.1 °F 60.1 °F 93% 30.06 in - Calm Calm - N/A   Unknown
7:52 AM 63.0 °F 61.0 °F 93% 30.07 in - SSW 26.5 mph - N/A   Unknown
8:52 AM 64.0 °F 62.1 °F 93% 30.08 in - South 3.5 mph - N/A   Unknown
9:52 AM 64.9 °F 63.0 °F 93% 30.09 in - SSE 5.8 mph - N/A   Unknown
10:52 AM 68.0 °F 63.0 °F 84% 30.09 in - North - - N/A   Unknown
11:52 AM 68.0 °F 63.0 °F 84% 30.09 in - SSE 10.4 mph - N/A   Unknown
12:52 PM 70.0 °F 63.0 °F 78% 30.10 in - SSW 4.6 mph - N/A   Unknown
1:52 PM 73.9 °F 63.0 °F 68% 30.07 in - South 6.9 mph - N/A   Unknown
2:52 PM 75.9 °F 64.0 °F 67% 30.06 in - SSE 8.1 mph - N/A   Unknown
3:52 PM 79.0 °F 64.9 °F 62% 30.05 in - SE 9.2 mph - N/A   Unknown
4:52 PM 73.0 °F 63.0 °F 71% 30.08 in - SE 9.2 mph - N/A   Unknown
5:52 PM 73.0 °F 63.0 °F 71% 30.09 in - SSE 11.5 mph - N/A   Unknown
6:52 PM 68.0 °F 63.0 °F 84% 30.11 in - ESE 9.2 mph - 0.02 in   Unknown
7:40 PM 66.2 °F 62.6 °F 88% 30.12 in - ESE 10.4 mph - 0.03 in   Unknown
7:52 PM 66.9 °F 63.0 °F 87% 30.09 in - ESE 12.7 mph - 0.03 in   Unknown
8:52 PM 66.0 °F 63.0 °F 90% 30.09 in - SE 9.2 mph - N/A   Unknown
9:52 PM 64.0 °F 61.0 °F 90% 30.07 in - SE 8.1 mph - N/A   Unknown
10:52 PM 63.0 °F 60.1 °F 90% 30.11 in - East 3.5 mph - N/A   Unknown
11:52 PM 62.1 °F 60.1 °F 93% 30.12 in - Calm Calm - N/A   Unknown